Weather History for Morristown, NJ

Change the Weather History Date:

Sunday, January 6, 2013

  Actual Average Record
Temperature  
Mean Temperature 37 °F -  
Max Temperature 46 °F 38 °F 71 °F (2007)
Min Temperature 28 °F 17 °F 0 °F (1942)
Degree Days  
Heating Degree Days 28    
Moisture  
Dew Point 27 °F    
Average Humidity 74    
Maximum Humidity 100    
Minimum Humidity 43    
Precipitation  
Precipitation 0.00 in - - ()
Sea Level Pressure  
Sea Level Pressure 30.10 in    
Wind  
Wind Speed 3 mph (West)    
Max Wind Speed 13 mph    
Max Gust Speed 20 mph    
Visibility 9 miles    
Events      
Averages and records for this station are not official NWS values.
T = Trace of Precipitation, MM = Missing Value Source: NWS Daily Summary

Daily Weather History Graph

Daily Weather History Graph

Search for Another Location

Airport:

Trip Planner

Search our weather history database for the weather conditions in past years. The results will help you decide how hot, cold, wet, or windy it might be!

Date:

Astronomy

Jan. 06, 2013 Rise Set
Actual Time 7:22 AM EST 4:45 PM EST
Civil Twilight 6:51 AM EST 5:16 PM EST
Nautical Twilight 6:17 AM EST 5:50 PM EST
Astronomical Twilight 5:44 AM EST 6:23 PM EST
Moon 1:32 AM EST (1/6) 12:11 PM EST (1/6)
Length of Visible Light 10h 24m
Length of Day
9h 23m
Waning Crescent, 33% of the Moon is Illuminated
Jan 6
Waning Crescent
Jan 11
New
Jan 18
First Quarter
Jan 26
Full
Feb 3
Last Quarter

Hourly Weather History & Observations

Time (EST) Temp. Windchill Dew Point Humidity Pressure Visibility Wind Dir Wind Speed Gust Speed Precip Events Conditions
12:15 AM 28.4 °F - 26.6 °F 93% 30.22 in 10.0 mi Calm Calm - N/A   Scattered Clouds
12:35 AM 28.4 °F - 26.6 °F 93% 30.21 in 10.0 mi Calm Calm - N/A   Mostly Cloudy
12:55 AM 28.4 °F - 26.6 °F 93% 30.21 in 10.0 mi Calm Calm - N/A   Overcast
1:15 AM 28.4 °F - 28.4 °F 100% 30.21 in 10.0 mi Calm Calm - N/A   Overcast
1:35 AM 30.2 °F - 26.6 °F 86% 30.22 in 10.0 mi Calm Calm - N/A   Overcast
1:55 AM 30.2 °F 26.7 °F 26.6 °F 86% 30.20 in 10.0 mi South 3.5 mph - N/A   Overcast
2:15 AM 30.2 °F - 26.6 °F 86% 30.20 in 10.0 mi Calm Calm - N/A   Overcast
2:35 AM 30.2 °F - 26.6 °F 86% 30.19 in 10.0 mi Calm Calm - N/A   Overcast
2:55 AM 30.2 °F - 26.6 °F 86% 30.18 in 10.0 mi Calm Calm - N/A   Overcast
3:15 AM 30.2 °F - 26.6 °F 86% 30.18 in 10.0 mi Calm Calm - N/A   Overcast
3:35 AM 30.2 °F - 26.6 °F 86% 30.17 in 10.0 mi Calm Calm - N/A   Overcast
3:55 AM 30.2 °F - 24.8 °F 80% 30.16 in 10.0 mi Calm Calm - N/A   Overcast
4:15 AM 30.2 °F - 26.6 °F 86% 30.15 in 10.0 mi Calm Calm - N/A   Overcast
4:35 AM 30.2 °F - 26.6 °F 86% 30.13 in 10.0 mi Calm Calm - N/A   Overcast
4:55 AM 30.2 °F - 26.6 °F 86% 30.13 in 10.0 mi Calm Calm - N/A   Overcast
5:15 AM 32.0 °F - 28.4 °F 87% 30.12 in 10.0 mi Calm Calm - N/A   Overcast
5:35 AM 32.0 °F - 28.4 °F 87% 30.12 in 7.0 mi Calm Calm - N/A   Overcast
6:45 AM 32.0 °F 25.6 °F 28.4 °F 87% 30.12 in 10.0 mi WSW 6.9 mph - N/A   Overcast
7:15 AM 32.0 °F 27.5 °F 21.2 °F 64% 30.12 in 3.0 mi West 4.6 mph - N/A   Overcast
7:45 AM 32.0 °F 25.6 °F 30.2 °F 93% 30.12 in 2.5 mi WSW 6.9 mph - N/A   Overcast
8:45 AM 33.8 °F 29.6 °F 30.2 °F 87% 30.11 in 2.5 mi SSW 4.6 mph - N/A   Overcast
9:15 AM 33.8 °F 30.8 °F 30.2 °F 87% 30.11 in 3.0 mi SW 3.5 mph - N/A   Overcast
9:45 AM 35.6 °F 30.7 °F 30.2 °F 81% 30.11 in 4.0 mi SW 5.8 mph - N/A   Mostly Cloudy
10:45 AM 37.4 °F 32.8 °F 30.2 °F 75% 30.09 in 7.0 mi WSW 5.8 mph - N/A   Scattered Clouds
11:45 AM 42.8 °F 37.5 °F 28.4 °F 57% 30.04 in 10.0 mi NW 9.2 mph - N/A   Partly Cloudy
12:45 PM 44.6 °F 38.4 °F 26.6 °F 49% 30.01 in 10.0 mi West 12.7 mph 18.4 mph N/A   Clear
1:45 PM 44.6 °F 38.8 °F 26.6 °F 49% 29.99 in 10.0 mi West 11.5 mph - N/A   Clear
2:55 PM 46.4 °F 41.5 °F 24.8 °F 43% 29.98 in 10.0 mi WNW 10.4 mph 16.1 mph N/A   Scattered Clouds
3:45 PM 44.6 °F 38.4 °F 24.8 °F 46% 29.98 in 10.0 mi WNW 12.7 mph 19.6 mph N/A   Scattered Clouds
4:45 PM 42.8 °F 36.2 °F 24.8 °F 49% 29.99 in 10.0 mi WNW 12.7 mph - N/A   Scattered Clouds
5:45 PM 42.8 °F 37.0 °F 24.8 °F 49% 30.00 in 10.0 mi West 10.4 mph - N/A   Mostly Cloudy
6:45 PM 41.0 °F 35.8 °F 24.8 °F 53% 30.01 in 10.0 mi West 8.1 mph - N/A   Mostly Cloudy
7:45 PM 41.0 °F 35.8 °F 24.8 °F 53% 30.02 in 10.0 mi West 8.1 mph - N/A   Overcast
8:45 PM 41.0 °F 35.8 °F 26.6 °F 57% 30.02 in 10.0 mi West 8.1 mph - N/A   Overcast
9:45 PM 41.0 °F 35.8 °F 26.6 °F 57% 30.03 in 10.0 mi West 8.1 mph - N/A   Mostly Cloudy
9:55 PM 37.4 °F 33.8 °F 28.4 °F 70% 30.03 in 10.0 mi West 4.6 mph - N/A   Scattered Clouds
10:15 PM 39.2 °F 34.2 °F 28.4 °F 65% 30.03 in 10.0 mi West 6.9 mph - N/A   Scattered Clouds
10:35 PM 39.2 °F 35.0 °F 28.4 °F 65% 30.03 in 10.0 mi West 5.8 mph - N/A   Mostly Cloudy
10:55 PM 39.2 °F 34.2 °F 28.4 °F 65% 30.03 in 10.0 mi West 6.9 mph - N/A   Scattered Clouds
11:15 PM 37.4 °F 32.8 °F 28.4 °F 70% 30.04 in 10.0 mi West 5.8 mph - N/A   Scattered Clouds
11:35 PM 37.4 °F 33.8 °F 28.4 °F 70% 30.05 in 10.0 mi West 4.6 mph - N/A   Clear
11:55 PM 37.4 °F 33.8 °F 28.4 °F 70% 30.05 in 10.0 mi West 4.6 mph - N/A   Clear